Wales, AK

2:56 AM AKST on February 11, 2016 (GMT -0900)
Tin City LRRS

Weather History for PATC - December, 2012

Change the Weather History Date:

Saturday, December 8, 2012

  Actual Average Record
Temperature  
Mean Temperature -4 °F -  
Max Temperature 2 °F 12 °F 35 °F (2002)
Min Temperature -11 °F 0 °F -11 °F (2012)
Degree Days  
Heating Degree Days 69    
Moisture  
Dew Point -7 °F    
Average Humidity 87    
Maximum Humidity 92    
Minimum Humidity 83    
Precipitation  
Precipitation 0.00 in - - ()
Sea Level Pressure  
Sea Level Pressure 29.94 in    
Wind  
Wind Speed 23 mph (NE)    
Max Wind Speed 39 mph    
Max Gust Speed 43 mph    
Visibility 4 miles    
Events Fog , Snow    
Averages and records for this station are not official NWS values.
T = Trace of Precipitation, MM = Missing Value Source: NWS Daily Summary

Daily Weather History Graph

Daily Weather History Graph

Search for Another Location

Airport or City:

Trip Planner

Search our weather history database for the weather conditions in past years. The results will help you decide how hot, cold, wet, or windy it might be!

Date:

Astronomy

Dec. 08, 2012 Rise Set
Actual Time 12:14 PM AKST 3:53 PM AKST
Civil Twilight 10:46 AM AKST 5:21 PM AKST
Nautical Twilight 9:33 AM AKST 6:34 PM AKST
Astronomical Twilight 8:30 AM AKST 7:37 PM AKST
Moon 4:47 AM AKST (12/8) 2:26 PM AKST (12/8)
Length of Visible Light 6h 34m
Length of Day
3h 39m
Waning Crescent, 27% of the Moon is Illuminated
Dec 8
Waning Crescent
Dec 12
New
Dec 19
First Quarter
Dec 28
Full
Jan 4
Last Quarter

Hourly Weather History & Observations

Time (AKST) Temp. Windchill Dew Point Humidity Pressure Visibility Wind Dir Wind Speed Gust Speed Precip Events Conditions
12:00 AM 1.4 °F -16.9 °F -0.4 °F 92% 30.25 in 3.0 mi NE 13.8 mph - N/A Snow Light Snow
12:20 AM 1.4 °F -17.6 °F -0.4 °F 92% 30.25 in 1.2 mi ENE 15.0 mph - N/A Snow Light Snow
12:55 AM 2.1 °F -16.6 °F -0.6 °F 88% 30.23 in 0.2 mi NE 15.0 mph - N/A Snow Snow
1:10 AM 1.4 °F -17.6 °F -0.4 °F 92% 30.23 in 1.5 mi NE 15.0 mph - N/A Snow Light Snow
1:30 AM 1.4 °F -20.5 °F -0.4 °F 92% 30.22 in 3.0 mi NE 20.7 mph - N/A Snow Light Snow
1:50 AM 3.2 °F -19.5 °F -0.4 °F 85% 30.22 in 1.0 mi NE 24.2 mph - N/A Snow Light Snow Showers
1:55 AM 2.3 °F -21.5 °F -0.0 °F 90% 30.21 in 1.0 mi NE 26.5 mph - N/A Snow Light Snow Showers
2:15 AM 3.2 °F -19.9 °F -0.4 °F 85% 30.21 in 0.8 mi NE 25.3 mph - N/A Snow Light Snow Showers
2:50 AM 1.4 °F -20.5 °F -0.4 °F 92% 30.21 in 4.0 mi NE 20.7 mph - N/A Snow Light Snow
3:55 AM -1.3 °F -19.6 °F -3.6 °F 90% 30.19 in 10.0 mi NE 12.7 mph - N/A   Mostly Cloudy
4:55 AM -0.2 °F -18.2 °F -2.7 °F 89% 30.17 in 3.0 mi NE 12.7 mph - N/A Snow Light Snow
5:45 AM 1.4 °F -22.3 °F -0.4 °F 92% 30.13 in 1.2 mi NE 25.3 mph 28.8 mph N/A Snow Light Snow
5:55 AM 1.4 °F -22.7 °F -1.5 °F 88% 30.12 in 0.8 mi NE 26.5 mph - N/A Snow Light Snow
6:05 AM 1.4 °F -21.9 °F -2.2 °F 85% 30.12 in 1.0 mi NE 24.2 mph - N/A Snow Light Snow
6:25 AM 1.4 °F -22.3 °F -2.2 °F 85% 30.11 in 8.0 mi ENE 25.3 mph - N/A   Overcast
6:55 AM 1.2 °F -21.2 °F -1.1 °F 90% 30.11 in 3.0 mi NE 21.9 mph - N/A Snow Light Snow Showers
7:00 AM 1.4 °F -24.3 °F -2.2 °F 85% 30.09 in 0.5 mi NE 31.1 mph 34.5 mph N/A Snow Light Snow Showers
7:20 AM -0.4 °F -25.2 °F -4.0 °F 85% 30.10 in 1.2 mi NE 26.5 mph - N/A Snow Light Snow Showers
7:55 AM -5.1 °F -29.0 °F -7.8 °F 88% 30.10 in 5.0 mi NE 20.7 mph - N/A   Mostly Cloudy
8:55 AM -7.6 °F -32.9 °F -10.5 °F 87% 30.10 in 10.0 mi NE 21.9 mph - N/A   Clear
9:55 AM -7.4 °F -33.1 °F -9.9 °F 89% 30.08 in 10.0 mi NE 23.0 mph - N/A   Clear
10:55 AM -6.5 °F -32.4 °F -9.6 °F 87% 30.05 in 10.0 mi NNE 24.2 mph - N/A   Overcast
11:55 AM -8.5 °F -35.6 °F -11.4 °F 87% 30.03 in 10.0 mi NE 25.3 mph - N/A   Scattered Clouds
12:25 PM -7.6 °F -34.4 °F -11.2 °F 84% 30.01 in 0.8 mi NE 25.3 mph - N/A Snow Light Snow Showers
12:45 PM -9.4 °F -36.3 °F -13.0 °F 84% 29.99 in 4.0 mi NNE 24.2 mph - N/A   Mostly Cloudy
12:55 PM -9.2 °F -36.0 °F -12.1 °F 87% 29.98 in 10.0 mi NNE 24.2 mph - N/A   Mostly Cloudy
1:50 PM -7.6 °F -34.8 °F -11.2 °F 84% 29.93 in 1.0 mi NE 26.5 mph - N/A Snow Light Snow Showers
1:55 PM -8.1 °F -35.6 °F -11.0 °F 87% 29.92 in 1.0 mi NE 26.5 mph - N/A   Overcast
2:10 PM -7.6 °F -34.4 °F -9.4 °F 92% 29.92 in 2.0 mi NE 25.3 mph - N/A   Overcast
2:30 PM -5.8 °F -31.0 °F -9.4 °F 84% 29.91 in 10.0 mi NNE 23.0 mph - N/A   Overcast
2:55 PM -5.6 °F -30.2 °F -8.5 °F 87% 29.90 in 10.0 mi NNE 21.9 mph - N/A   Overcast
3:55 PM -5.1 °F -30.5 °F -8.1 °F 87% 29.83 in 10.0 mi NNE 24.2 mph - N/A   Overcast
4:55 PM -4.4 °F -29.6 °F -6.7 °F 90% 29.80 in 8.0 mi NE 24.2 mph - N/A Snow Light Snow Showers
5:35 PM -4.0 °F -30.9 °F -5.8 °F 92% 29.78 in 1.0 mi NE 28.8 mph - N/A Snow Light Snow Showers
5:55 PM -3.8 °F -31.8 °F -7.2 °F 85% 29.76 in 0.8 mi NE 32.2 mph - N/A Snow Light Snow Showers
6:55 PM -6.7 °F -35.7 °F -9.6 °F 87% 29.73 in 0.5 mi NE 32.2 mph - N/A Fog , Snow Light Snow Showers
7:30 PM -9.4 °F -39.4 °F -13.0 °F 84% 29.71 in 0.8 mi NE 32.2 mph - N/A Snow Light Snow Showers
7:55 PM -9.0 °F -38.5 °F -12.8 °F 83% 29.70 in 0.5 mi NNE 31.1 mph - N/A Fog Light Freezing Fog
8:20 PM -9.4 °F -40.2 °F -13.0 °F 84% 29.68 in 0.2 mi NE 34.5 mph 40.3 mph N/A Fog , Snow Light Snow Showers
8:40 PM -11.2 °F -42.6 °F -13.0 °F 92% 29.67 in 0.5 mi NNE 34.5 mph - N/A Snow Light Snow Showers
8:55 PM -11.2 °F -42.6 °F -15.0 °F 83% 29.66 in 0.5 mi NNE 34.5 mph - N/A Fog , Snow Light Snow Showers
9:55 PM -10.1 °F -42.3 °F -13.5 °F 85% 29.63 in 0.8 mi NNE 38.0 mph - N/A Snow Light Snow Showers
10:15 PM -9.4 °F -40.5 °F -13.0 °F 84% 29.62 in 1.0 mi NNE 35.7 mph - N/A Snow Light Snow Showers
10:35 PM -9.4 °F -40.5 °F -13.0 °F 84% 29.61 in 1.2 mi NNE 35.7 mph - N/A   Partly Cloudy
10:55 PM -8.9 °F -40.8 °F -11.7 °F 87% 29.58 in 0.8 mi NNE 39.1 mph - N/A Snow Light Snow Showers
11:10 PM -7.6 °F -38.4 °F -11.2 °F 84% 29.60 in 1.0 mi NNE 36.8 mph 42.6 mph N/A Snow Light Snow Showers
11:30 PM -7.6 °F -36.9 °F -11.2 °F 84% 29.60 in 1.5 mi NE 32.2 mph - N/A   Clear
11:50 PM -7.6 °F -37.7 °F -11.2 °F 84% 29.60 in 10.0 mi NNE 34.5 mph - N/A   Clear
11:55 PM -7.6 °F -38.4 °F -9.8 °F 90% 29.59 in 10.0 mi NNE 36.8 mph - N/A   Clear